Location: *
(50.3352°S, 157.1672°W)
Time: 05:17:04
(UTC+00:00)

Daily predictions for brighter satellites

Satellite Brightness Start Highest point End
(mag) Time Altitude Azimuth Time Altitude Azimuth Time Altitude Azimuth
ADEOS Rocket 3.6 03:05:10 10° NNE 03:12:46 71° ESE 03:20:37 10° SSW
ADEOS 3.8 03:07:50 10° SSE 03:13:09 78° WSW 03:18:25 10° NNW
COSMOS 2428 3.8 03:08:43 10° NNE 03:13:24 26° ENE 03:18:09 10° SE
Cosmos 1538 Rocket 4.2 03:09:14 10° N 03:14:18 53° ENE 03:19:24 10° SSE
STARLINK-1353 3.5 03:12:23 10° WSW 03:16:03 56° S 03:19:41 10° E
Cosmos 1766 Rocket 4.3 03:12:04 10° NNW 03:16:30 61° WSW 03:21:03 10° S
Cosmos 1812 4.1 03:14:02 10° SSE 03:17:02 20° ESE 03:20:00 10° ENE
Cosmos 1461 3.6 03:13:46 10° SSW 03:17:25 30° SE 03:20:57 10° E
STARLINK-80 3.6 03:14:04 10° NW 03:17:54 65° NNE 03:21:45 10° ESE
STARLINK-43 3.4 03:14:49 10° W 03:18:34 71° SSW 03:22:21 10° ESE
STARLINK-1375 3.5 03:15:17 10° WSW 03:18:58 57° S 03:22:38 10° E
STARLINK-1320 3.2 03:16:02 10° WSW 03:19:12 54° S 03:22:21 10° E
ATLAS 5 CENTAUR R/B 4.4 03:16:42 10° NE 03:19:28 13° ENE 03:22:09 10° E
STARLINK-1322 3.2 03:16:21 10° WSW 03:19:30 54° S 03:22:40 10° E
STARLINK 1040 2.6 03:16:57 10° W 03:19:36 62° SSW 03:22:17 10° ESE
STARLINK-1324 3.2 03:16:42 10° WSW 03:19:52 54° S 03:23:02 10° E
STARLINK-1294 3.1 03:17:04 10° WSW 03:20:12 54° S 03:23:20 10° E
STARLINK-1261 3.2 03:17:22 10° WSW 03:20:32 54° S 03:23:41 10° E
STARLINK-1325 3.2 03:17:42 10° WSW 03:20:51 54° S 03:24:01 10° E
STARLINK-1333 3.2 03:18:04 10° WSW 03:21:15 55° S 03:24:24 10° E
STARLINK-1350 3.5 03:17:46 10° WSW 03:21:27 57° S 03:25:06 10° E
STARLINK-1334 3.2 03:18:23 10° WSW 03:21:33 55° S 03:24:44 10° E
Cosmos 1515 Rocket 3.8 03:17:11 10° SSW 03:21:43 82° W 03:26:11 10° N
STARLINK-1326 3.1 03:18:44 10° WSW 03:21:55 55° S 03:25:04 10° E
STARLINK-1323 3.1 03:19:03 10° WSW 03:22:13 55° S 03:25:23 10° E
Cosmos 1821 Rocket 4.0 03:16:20 10° N 03:22:27 74° E 03:28:42 10° SSE
STARLINK-1349 3.1 03:19:26 10° WSW 03:22:36 55° S 03:25:46 10° E
STARLINK-1336 3.1 03:19:44 10° WSW 03:22:55 55° S 03:26:04 10° E
Cosmos 1943 Rocket 4.0 03:20:50 10° S 03:22:56 12° SSE 03:25:01 10° SE
STARLINK-1331 3.1 03:20:07 10° WSW 03:23:18 55° S 03:26:28 10° E
STARLINK-1344 3.1 03:20:28 10° WSW 03:23:38 55° S 03:26:48 10° E
Cosmos 2369 Rocket 4.1 03:22:08 10° S 03:23:50 11° SSE 03:25:32 10° SE
STARLINK-1343 3.1 03:20:45 10° WSW 03:23:55 55° S 03:27:05 10° E
CZ-4B R/B 4.5 03:20:04 10° SE 03:24:04 20° E 03:28:04 10° NE
STARLINK-1352 3.5 03:20:31 10° WSW 03:24:11 58° S 03:27:50 10° E
STARLINK-1346 3.1 03:21:10 10° WSW 03:24:19 55° S 03:27:26 10° E
STARLINK-1328 3.1 03:21:26 10° WSW 03:24:37 55° S 03:27:46 10° E
STARLINK-1354 3.1 03:21:45 10° WSW 03:24:55 56° S 03:28:06 10° E
STARLINK-1347 3.1 03:22:07 10° WSW 03:25:17 56° S 03:28:27 10° E
STARLINK-1357 3.1 03:22:27 10° WSW 03:25:38 56° S 03:28:47 10° E
Meteor 1-31 Rocket 2.8 03:21:56 10° SSE 03:26:00 85° ENE 03:29:59 10° NNW
STARLINK-1335 3.1 03:22:52 10° WSW 03:26:01 56° S 03:29:11 10° E
STARLINK-1327 3.1 03:23:07 10° WSW 03:26:17 56° S 03:29:27 10° E
Cosmos 2237 Rocket 3.9 03:23:41 10° NE 03:26:21 14° E 03:29:02 10° ESE
STARLINK-1340 3.1 03:23:28 10° WSW 03:26:38 56° S 03:29:48 10° E
STARLINK-1283 3.5 03:22:50 10° WNW 03:26:43 75° NNE 03:30:29 11° ESE
STARLINK-1368 3.5 03:23:15 10° WSW 03:26:56 58° S 03:30:35 10° E
STARLINK-1356 3.1 03:23:49 10° WSW 03:26:59 56° S 03:30:09 10° E
STARLINK-1345 3.1 03:24:08 10° WSW 03:27:19 56° S 03:30:29 10° E
STARLINK-1355 3.1 03:24:28 10° WSW 03:27:39 56° S 03:30:49 10° E
STARLINK-1321 3.1 03:24:50 10° WSW 03:28:01 57° S 03:31:10 10° E
SL-16 R/B 3.0 03:22:37 10° NW 03:28:10 50° SW 03:33:44 10° SSE
STARLINK-1358 3.1 03:25:09 10° WSW 03:28:20 57° S 03:31:30 10° E
STARLINK-1332 3.1 03:25:34 10° WSW 03:28:44 57° S 03:31:54 10° E
STARLINK-60 3.9 03:25:47 10° WSW 03:29:00 51° NNW 03:32:10 10° NE
STARLINK-1348 3.1 03:25:51 10° WSW 03:29:02 57° S 03:32:12 10° E
STARLINK-1330 3.1 03:26:10 10° WSW 03:29:20 57° S 03:32:30 10° E
STARLINK-1369 3.5 03:26:00 10° WSW 03:29:41 59° S 03:33:21 10° E
STARLINK-1363 3.1 03:26:34 10° WSW 03:29:45 57° S 03:32:55 10° E
COSMO-SKYMED 1 2.6 03:25:22 10° NNE 03:29:45 79° ESE 03:34:12 10° SSW
STARLINK-1337 3.1 03:26:51 10° WSW 03:30:02 57° S 03:33:12 10° E
Cosmos 1707 Rocket 4.4 03:26:22 10° S 03:30:18 28° ESE 03:34:10 10° NE
STARLINK-1342 3.1 03:27:11 10° WSW 03:30:22 57° S 03:33:32 10° E
STARLINK-1364 3.1 03:27:31 10° WSW 03:30:41 57° S 03:33:51 10° E
STARLINK-1311 2.9 03:27:43 10° WNW 03:30:45 73° NNE 03:33:30 12° ESE
STARLINK-1376 3.1 03:27:53 10° WSW 03:31:04 58° S 03:34:12 10° E
STARLINK-1360 3.1 03:28:12 10° WSW 03:31:23 58° S 03:34:30 10° E
STARLINK-1361 3.1 03:28:31 10° WSW 03:31:42 58° S 03:34:49 10° E
STARLINK-1367 3.0 03:28:54 10° WSW 03:32:03 58° S 03:35:06 11° E
STARLINK-1366 3.1 03:29:16 10° WSW 03:32:27 58° S 03:35:32 11° E
STARLINK-1372 3.4 03:28:47 10° WSW 03:32:28 60° S 03:36:05 10° E
Cosmos 2228 Rocket 3.1 03:30:27 10° S 03:35:06 79° E 03:39:38 10° NNE
STARLINK-1378 3.4 03:31:44 10° WSW 03:35:27 61° S 03:39:00 11° E
STARLINK-42 3.0 03:32:46 10° WNW 03:36:03 89° SSW 03:38:50 14° ESE
Cosmos 1371 Rocket 4.5 03:31:10 10° SSW 03:36:20 40° ESE 03:41:25 10° NE
STARLINK-1316 3.0 03:33:13 10° WNW 03:36:25 74° NNE 03:39:06 14° ESE
Cosmos 1633 2.5 03:33:33 10° N 03:37:11 67° E 03:40:51 10° SSE
Cosmos 1934 Rocket 4.1 03:30:59 10° N 03:37:14 61° E 03:43:36 10° SSE
STARLINK-1257 3.0 03:34:09 10° WNW 03:37:21 75° NNE 03:39:59 14° ESE
USA 32 4.2 03:32:15 10° N 03:37:34 82° W 03:42:56 10° S
STARLINK-1329 3.4 03:34:03 10° WSW 03:37:45 61° S 03:41:11 12° E
STARLINK-1379 3.4 03:34:21 10° WSW 03:38:03 61° S 03:41:27 12° E
STARLINK-1256 3.0 03:35:02 10° WNW 03:38:14 76° NNE 03:40:51 14° ESE
STARLINK-1213 2.9 03:35:56 10° WNW 03:39:08 77° NNE 03:41:43 15° ESE
Iridium 96 3.2 03:38:10 10° SSE 03:39:50 35° E 03:41:30 10° NNE
ATLAS CENTAUR R/B 3.5 03:37:03 10° SSW 03:39:54 16° SSE 03:42:24 11° SE
STARLINK-1263 2.9 03:36:51 10° WNW 03:40:02 78° NNE 03:42:35 15° ESE
STARLINK-1362 3.4 03:37:06 10° WSW 03:40:51 63° S 03:44:13 12° E
STARLINK-1259 2.9 03:37:44 10° WNW 03:40:56 79° NNE 03:43:26 15° ESE
STARLINK-1365 3.4 03:37:20 10° WSW 03:41:05 64° S 03:44:27 12° E
STARLINK-1265 2.9 03:38:16 10° WNW 03:41:27 79° NNE 03:43:54 16° ESE
Meteor 2-3 Rocket 4.0 03:35:52 10° NNW 03:41:41 77° WSW 03:47:37 10° S
STARLINK-1285 2.9 03:38:37 10° WNW 03:41:49 79° NNE 03:44:19 16° ESE
STARLINK-1268 2.9 03:39:20 10° WNW 03:42:31 80° NNE 03:44:57 16° ESE
USA 116 4.4 03:38:34 10° NNE 03:43:24 59° ESE 03:48:40 10° S
STARLINK-1296 2.9 03:40:28 10° WNW 03:43:39 81° NNE 03:46:04 16° ESE
STARLINK-1373 3.4 03:39:57 10° WSW 03:43:41 64° S 03:46:55 13° E
STARLINK-1260 2.9 03:41:21 10° WNW 03:44:33 82° NNE 03:46:55 17° ESE
STARLINK-1318 2.9 03:42:16 10° WNW 03:45:28 83° NNE 03:47:48 17° ESE
Cosmos 2333 Rocket 2.5 03:40:10 10° N 03:45:44 51° ENE 03:51:22 10° SE
Meteor 1-10 Rocket 4.2 03:40:23 10° S 03:46:02 63° ESE 03:51:42 10° NNE
STARLINK-1275 2.9 03:43:08 10° WNW 03:46:19 84° NNE 03:48:38 18° ESE
STARLINK-1390 3.4 03:42:40 10° WSW 03:46:23 64° S 03:49:28 14° E
Cosmos 2278 Rocket 2.4 03:41:34 10° SSW 03:47:09 50° SE 03:52:41 10° NE
STARLINK-1309 2.9 03:44:01 10° WNW 03:47:13 85° NNE 03:49:30 18° ESE
FENGYUN 3A 3.7 03:42:12 10° SSE 03:47:45 89° ENE 03:53:12 10° NNW
Cosmos 1605 Rocket 4.2 03:42:02 10° NNE 03:47:58 49° E 03:53:54 10° SSE
STARLINK-1282 2.9 03:44:56 10° WNW 03:48:09 85° NNE 03:50:23 18° ESE
BREEZE-M DEB (TANK) 3.5 03:45:43 10° WNW 03:48:24 36° N 03:51:10 10° ENE
Cosmos 1844 Rocket 4.0 03:43:29 10° SW 03:48:55 46° WNW 03:54:18 10° N
STARLINK-1313 2.9 03:45:59 10° WNW 03:49:11 88° SSW 03:51:23 19° ESE
STARLINK-62 3.0 03:46:06 10° WNW 03:49:21 71° NNE 03:51:36 19° ESE
STARLINK-1279 2.9 03:46:57 10° WNW 03:50:10 87° SSW 03:52:20 19° ESE
Okean O Rocket 2.6 03:46:26 10° SE 03:50:15 27° E 03:54:04 10° NNE
STARLINK-1299 4.3 03:46:16 10° NW 03:50:26 47° NNE 03:53:34 17° ESE
Cosmos 1743 Rocket 3.7 03:46:04 10° NNW 03:50:30 81° W 03:55:03 10° S
STARLINK-1298 2.9 03:47:38 10° WNW 03:50:50 88° N 03:52:58 19° ESE
STARLINK-1029 3.2 03:47:45 10° NW 03:50:54 59° NNE 03:53:00 19° ESE
STARLINK-1306 4.3 03:47:06 10° NW 03:51:08 43° NE 03:54:09 17° E
STARLINK-34 3.0 03:48:03 10° WNW 03:51:17 73° NNE 03:53:28 19° ESE
STARLINK-1301 3.2 03:47:59 10° WNW 03:51:34 89° SSW 03:54:03 19° ESE
STARLINK-1293 2.9 03:48:34 10° WNW 03:51:46 89° NNE 03:53:53 20° ESE
Cosmos 405 3.0 03:48:30 10° S 03:52:04 57° ESE 03:55:34 10° NNE
METEOR-M 4.2 03:46:53 10° SSE 03:52:21 89° E 03:57:45 10° NNW
BREEZE-M DEB (TANK) 1.3 03:49:43 10° W 03:52:24 73° N 03:53:53 18° E
STARLINK-55 3.0 03:49:42 10° W 03:52:59 70° SSW 03:55:06 20° ESE
H-2A R/B 3.8 03:50:11 13° SE 03:53:03 26° E 03:56:23 10° NNE
STARLINK-1255 2.9 03:50:22 10° WNW 03:53:34 90° SSE 03:55:35 21° ESE
STARLINK-1281 4.3 03:50:37 10° NW 03:54:35 42° NE 03:57:22 18° E
STARLINK-1307 3.2 03:51:18 10° WNW 03:54:53 89° NNE 03:57:15 20° ESE
Cosmos 1484 Rocket 3.6 03:52:11 10° S 03:56:02 52° WSW 03:59:45 10° NNW
SMAP 4.3 03:54:07 14° SE 03:56:51 22° E 04:00:32 10° NE
STARLINK-1290 3.2 03:54:02 10° WNW 03:57:37 89° SSW 03:59:53 21° ESE
STARLINK-29 3.6 03:54:35 10° WSW 03:57:51 56° NNW 04:01:07 10° NE
Sich 1 3.4 03:53:41 10° NNE 03:57:52 43° E 04:02:07 10° SSE
ATLAS 2AS CENTAUR R/B 3.4 03:53:31 10° SW 03:59:16 33° SSE 04:03:39 17° ESE
STARLINK-1310 4.2 03:55:32 10° NW 03:59:33 45° NNE 04:02:10 20° E
Cosmos 2322 3.7 03:53:57 10° NNW 03:59:39 86° ENE 04:05:25 10° SSE
STARLINK-1297 3.2 03:56:42 10° WNW 04:00:16 87° SSW 04:02:25 23° ESE
CZ-2C R/B 4.2 03:56:51 10° S 04:00:47 27° WSW 04:04:39 10° WNW
STARLINK-26 3.3 03:57:26 10° W 04:00:57 67° SSW 04:03:00 23° ESE
Cosmos 2360 Rocket 2.8 03:57:17 10° NW 04:02:53 57° SW 04:08:32 10° SSE
STARLINK-28 3.1 04:00:08 10° W 04:03:23 63° SSW 04:05:06 25° ESE
STARLINK-1319 4.1 04:00:27 10° NW 04:04:30 48° NNE 04:06:56 22° E
PSLV R/B 3.9 04:00:31 10° SSE 04:04:45 80° ENE 04:08:54 10° N
Cosmos 2056 Rocket 3.6 03:59:35 10° SSW 04:04:56 56° ESE 04:10:08 10° NE
STARLINK-41 3.0 04:02:27 10° W 04:05:41 68° SSW 04:07:16 27° ESE
SJ-12 4.2 04:01:43 10° S 04:05:55 72° WSW 04:10:01 10° NNW
Cosmos 1346 Rocket 2.7 04:02:39 10° N 04:06:38 87° ENE 04:10:42 10° SSE
STARLINK-48 3.5 04:02:53 10° WNW 04:06:51 75° NNE 04:09:07 24° ESE
Cosmos 2333 4.3 04:02:31 10° NNW 04:08:21 88° WSW 04:14:10 10° SSE
STARLINK-1277 4.0 04:05:22 10° NW 04:09:26 52° NNE 04:11:43 24° E
SL-24 R/B 4.3 04:04:48 10° NNE 04:09:46 67° E 04:14:39 10° S
MOS 1-B 4.4 04:03:55 10° SSE 04:09:49 68° ENE 04:15:38 10° N
NOAA 6 4.1 04:05:30 10° SSE 04:10:37 55° E 04:15:41 10° N
Cosmos 1980 Rocket 4.4 04:08:55 10° WSW 04:12:09 15° SSW 04:15:23 10° S
CZ-4B R/B 4.1 04:09:11 10° S 04:13:21 47° WSW 04:17:38 10° NW
CZ-2C R/B 3.7 04:12:08 20° E 04:13:48 24° ESE 04:18:01 10° S
STARLINK-1276 3.9 04:10:19 10° NW 04:14:25 55° NNE 04:16:30 27° E
SJ-7 4.4 04:13:14 11° SSE 04:17:11 59° E 04:21:10 10° N
STARLINK-1291 3.1 04:14:15 10° WNW 04:17:39 72° SSW 04:18:57 35° ESE
Cosmos 1818 4.3 04:13:10 10° N 04:17:56 33° ENE 04:20:02 25° ESE
STARLINK-1317 3.3 04:14:32 10° W 04:18:09 71° SSW 04:19:38 33° ESE
STARLINK-1305 3.9 04:15:16 10° NW 04:19:23 58° NNE 04:21:18 30° E
STARLINK-1264 3.1 04:16:08 10° W 04:19:33 71° SSW 04:20:47 36° ESE
STARLINK-33 3.2 04:17:52 10° W 04:21:07 59° S 04:22:07 38° SE
STARLINK-1267 3.2 04:18:02 10° W 04:21:28 70° SSW 04:22:39 37° ESE
STARLINK-1278 3.8 04:18:25 10° NW 04:22:43 69° NNE 04:24:39 31° ESE
STARLINK-1272 3.2 04:19:55 10° W 04:23:21 69° SSW 04:24:28 39° ESE
ALOS 3.5 04:19:23 10° S 04:23:54 43° WSW 04:28:20 10° NW
STARLINK-64 3.2 04:20:22 10° WNW 04:23:59 76° NNE 04:25:13 39° ESE
Cosmos 1666 Rocket 3.6 04:19:51 10° N 04:24:08 54° E 04:27:45 14° SSE
H-2A R/B 3.4 04:20:14 10° S 04:24:22 48° WSW 04:28:17 10° NW
STARLINK-1262 3.8 04:20:13 10° NW 04:24:22 62° NNE 04:26:05 33° E
STARLINK-1280 3.8 04:20:15 10° WNW 04:24:33 70° NNE 04:26:25 33° ESE
Cosmos 1340 4.0 04:20:58 10° NW 04:24:34 39° WSW 04:28:14 10° S
Cosmos 2100 Rocket 4.4 04:19:02 10° NNE 04:24:43 39° E 04:30:25 10° SSE
STARLINK-1207 3.2 04:21:50 10° W 04:25:16 68° SSW 04:26:18 41° SE
CZ-4B DEB 4.2 04:20:29 10° SSE 04:26:04 87° ENE 04:31:38 10° NNW
Cosmos 1633 Rocket 3.3 04:22:03 10° NNE 04:26:20 48° E 04:29:25 18° SSE
Cosmos 2219 Rocket 2.2 04:20:41 10° NNW 04:26:24 90° W 04:31:16 15° SSE
STARLINK-1266 3.2 04:23:47 10° W 04:27:13 67° SSW 04:28:11 43° SE
SeaSat 1 4.1 04:27:40 16° SSE 04:27:40 16° SSE 04:30:25 10° S
YAOGAN 6 4.0 04:28:41 24° NE 04:28:41 24° NE 04:30:46 10° NNE
STARLINK-1284 3.2 04:25:46 10° W 04:29:12 66° SSW 04:30:05 44° SE
STARLINK-1300 3.7 04:25:08 10° NW 04:29:18 66° NNE 04:30:50 37° E
Cosmos 1680 Rocket 3.4 04:24:06 10° NNW 04:29:24 78° ENE 04:33:39 16° SSE
STARLINK-66 3.3 04:26:35 10° W 04:29:50 56° S 04:30:29 45° SE
Shenzhou-11 Module 4.1 04:29:22 10° NNW 04:30:54 14° N 04:31:02 14° NNE
STARLINK-1258 3.2 04:27:41 10° W 04:31:07 65° SSW 04:31:55 46° SE
Cosmos 923 Rocket 4.1 04:26:50 10° NNW 04:32:14 81° WSW 04:37:07 13° SSE
STARLINK-1292 3.2 04:29:39 10° W 04:33:06 64° SSW 04:33:49 48° SE
PAYLOAD B 4.2 04:27:32 10° SSE 04:33:10 86° ENE 04:38:44 10° NNW
STARLINK-52 4.5 04:30:53 10° W 04:33:56 35° NNW 04:36:01 17° NNE
STARLINK-1295 3.7 04:30:07 10° WNW 04:34:19 69° NNE 04:35:39 41° E
Cosmos 1153 Rocket 4.4 04:28:50 10° N 04:34:57 69° E 04:41:09 10° SSE
STARLINK-1274 3.3 04:31:40 10° W 04:35:06 64° SSW 04:35:45 50° SE
Cosmos 1452 Rocket 3.9 04:30:16 10° SSW 04:35:18 40° ESE 04:37:04 31° E
STARLINK-1338 3.2 04:31:39 10° WSW 04:35:20 85° NNW 04:36:25 44° ENE
CZ-4C R/B 3.9 04:30:48 10° WSW 04:36:30 26° S 04:39:27 18° SSE
STARLINK-1289 3.3 04:33:42 10° W 04:37:08 63° SSW 04:37:43 52° SE
FALCON 9 DEB 4.0 04:34:31 10° WSW 04:37:57 48° NNW 04:39:35 26° NNE
Cosmos 1420 Rocket 4.1 04:33:31 10° SSW 04:38:52 57° ESE 04:43:41 12° NE
STARLINK-1303 3.3 04:35:40 10° W 04:39:07 62° SSW 04:39:37 54° SSE
STARLINK-1287 3.6 04:35:03 10° WNW 04:39:15 73° NNE 04:40:24 46° E
Cosmos 1862 3.9 04:36:00 10° NNW 04:40:01 59° WSW 04:44:07 10° S
STARLINK-1371 3.3 04:37:02 10° WSW 04:40:44 81° NNW 04:41:37 50° NE
STARLINK-75 3.2 04:37:42 10° W 04:40:56 54° S 04:41:08 53° S
STARLINK-1312 3.2 04:37:40 10° W 04:41:07 61° S 04:41:32 55° SSE
Cosmos 1980 3.9 04:35:53 10° N 04:41:23 51° ENE 04:43:46 32° SE
STARLINK-1341 3.3 04:39:42 10° WSW 04:43:25 79° NNW 04:44:13 52° NE
Cosmos 2322 Rocket 4.1 04:39:19 10° W 04:43:48 23° SW 04:48:20 10° SSE
Envisat 3.1 04:41:07 21° SSE 04:44:30 54° E 04:49:31 10° N
STARLINK-1374 3.3 04:42:19 10° WSW 04:46:00 77° NNW 04:46:42 55° NE
Cosmos 2297 4.0 04:41:38 10° SSW 04:47:07 45° SE 04:48:34 38° E
Cosmos 1238 Rocket 2.7 04:43:06 10° N 04:47:28 70° E 04:48:23 49° SSE
STARLINK-58 3.1 04:44:25 10° W 04:47:38 63° SSW 04:47:38 63° SSW
NOSS 0 Rocket 3.9 04:41:41 10° NNW 04:47:52 67° ENE 04:51:20 28° SE
STARLINK-1339 3.4 04:45:00 10° WSW 04:48:42 74° NNW 04:49:18 58° NE
STARLINK-1302 3.6 04:45:00 10° WNW 04:49:13 81° NNE 04:49:59 58° E
STARLINK-22 3.4 04:47:18 10° W 04:50:24 54° SSW 04:50:24 54° SSW
USA 234 3.5 04:47:01 28° SE 04:50:42 65° SSW 04:57:14 10° W
MOS 1 Rocket 4.0 04:51:50 36° SE 04:51:50 36° SE 04:55:23 10° S
STARLINK-1377 3.4 04:47:21 10° WSW 04:51:01 72° NNW 04:51:30 61° NNE
Cosmos 2016 Rocket 4.4 04:46:19 10° NNE 04:52:08 41° E 04:54:28 30° SE
Meteor 1-27 Rocket 4.2 04:46:15 10° SSW 04:52:09 68° W 04:58:03 10° N
Cosmos 1812 4.1 04:49:18 10° SSW 04:53:01 41° W 04:56:41 10° NNW
STARLINK-1353 3.4 04:50:01 10° WSW 04:53:42 70° NNW 04:54:05 63° NNE
STARLINK 1040 4.3 04:51:15 10° WSW 04:52:48 27° SW 04:52:48 27° SW
Cosmos 2173 Rocket 4.0 04:47:44 10° N 04:53:54 58° E 05:00:01 10° SSE
STARLINK-1273 3.5 04:49:58 10° WNW 04:54:12 84° NNE 04:54:46 66° E
STARLINK-1320 3.4 04:51:55 10° WSW 04:54:59 56° NW 04:54:59 56° NW
STARLINK-1322 3.4 04:52:14 10° WSW 04:55:18 56° NW 04:55:18 56° NW
Helios 1A Rocket 3.8 04:56:56 35° NNE 04:56:56 35° NNE 04:59:35 10° N
STARLINK-1324 3.4 04:52:35 10° WSW 04:55:38 56° NW 04:55:38 56° NW
STARLINK-1294 3.5 04:52:58 10° WSW 04:55:55 55° NW 04:55:55 55° NW
STARLINK-80 3.6 04:52:24 10° W 04:56:15 59° S 04:56:25 58° S
STARLINK-1261 3.5 04:53:15 10° WSW 04:56:16 55° NW 04:56:16 55° NW
Cosmos 1461 3.8 04:52:48 10° SW 04:56:38 44° WNW 05:00:02 12° NNE
STARLINK-43 3.6 04:52:57 10° WSW 04:56:34 57° S 04:56:34 57° S
STARLINK-1375 3.4 04:53:01 10° WSW 04:56:43 67° NNW 04:57:02 63° N
STARLINK-1325 3.5 04:53:34 10° WSW 04:56:35 55° NW 04:56:35 55° NW
STARLINK-1333 3.5 04:53:58 10° WSW 04:56:57 54° NW 04:56:57 54° NW
COSMOS 2428 3.1 04:51:33 10° NW 04:57:16 63° WSW 05:01:20 20° SSE
STARLINK-1334 3.5 04:54:17 10° WSW 04:57:16 54° NW 04:57:16 54° NW
CZ-2C R/B 4.2 04:58:30 44° SE 04:58:30 44° SE 05:02:25 10° S
STARLINK-1326 3.6 04:54:38 10° WSW 04:57:35 53° NW 04:57:35 53° NW
STARLINK-1323 3.6 04:54:56 10° WSW 04:57:53 53° NW 04:57:53 53° NW
STARLINK-1349 3.6 04:55:19 10° WSW 04:58:15 52° NW 04:58:15 52° NW
STARLINK-1336 3.6 04:55:38 10° WSW 04:58:33 52° NW 04:58:33 52° NW
COSMOS 2455 4.0 04:53:54 10° SSW 04:58:51 25° SSE 04:58:54 25° SSE
STARLINK-1350 3.5 04:55:25 10° WSW 04:59:05 65° NNW 04:59:16 64° N
STARLINK-1288 3.5 04:54:56 10° WNW 04:59:09 88° NNE 04:59:32 74° ESE
STARLINK-1331 3.6 04:56:01 10° WSW 04:58:55 52° NW 04:58:55 52° NW
STARLINK-81 4.4 04:55:45 10° NNW 04:58:52 36° NNE 04:58:52 36° NNE
STARLINK-1344 3.7 04:56:22 10° WSW 04:59:15 51° NW 04:59:15 51° NW
STARLINK-1343 3.7 04:56:38 10° WSW 04:59:31 51° NW 04:59:31 51° NW
STARLINK-1346 3.7 04:57:03 10° WSW 04:59:51 49° NW 04:59:51 49° NW
STARLINK-1328 3.7 04:57:20 10° WSW 05:00:11 50° NW 05:00:11 50° NW
STARLINK-1354 3.7 04:57:39 10° WSW 05:00:29 49° NW 05:00:29 49° NW
STARLINK-54 4.3 04:57:22 10° NW 05:00:34 40° NNE 05:00:34 40° NNE
Cosmos 1459 Rocket 3.9 04:54:57 10° N 05:01:07 65° E 05:07:27 10° SSE
STARLINK-1347 3.7 04:58:00 10° WSW 05:00:50 49° NW 05:00:50 49° NW
STARLINK-1357 3.8 04:58:21 10° WSW 05:01:09 49° NW 05:01:09 49° NW
STARLINK-1352 3.5 04:58:09 10° WSW 05:01:49 63° NNW 05:01:54 63° NNW
STARLINK-1335 3.8 04:58:45 10° WSW 05:01:32 48° NW 05:01:32 48° NW
STARLINK-1327 3.8 04:59:01 10° WSW 05:01:48 48° NW 05:01:48 48° NW
STARLINK-1340 3.8 04:59:21 10° WSW 05:02:08 47° NW 05:02:08 47° NW
STARLINK-77 4.4 04:58:51 10° NW 05:01:54 37° N 05:01:54 37° N
DMSP B5D2-2 4.1 05:01:50 49° E 05:02:36 53° ESE 05:07:45 10° S
STARLINK-1356 3.8 04:59:42 10° WSW 05:02:27 47° WNW 05:02:27 47° WNW
Gblst 52 Del rocket 4.4 04:56:21 10° W 05:03:05 84° S 05:04:58 47° ESE
ATLAS 5 CENTAUR R/B 2.8 04:56:15 10° NNW 05:03:09 53° NE 05:04:51 43° E
STARLINK-1345 3.9 05:00:01 10° WSW 05:02:47 47° WNW 05:02:47 47° WNW
STARLINK-1355 3.9 05:00:22 10° WSW 05:03:06 46° WNW 05:03:06 46° WNW
STARLINK-1321 3.9 05:00:44 10° WSW 05:03:27 46° WNW 05:03:27 46° WNW
STARLINK-1358 3.9 05:01:03 10° WSW 05:03:45 45° WNW 05:03:45 45° WNW
STARLINK-1308 3.5 04:59:57 10° WNW 05:04:10 88° SSW 05:04:21 82° SE
STARLINK-1368 3.6 05:00:55 10° WSW 05:04:33 61° NNW 05:04:33 61° NNW
STARLINK-1332 4.0 05:01:27 10° WSW 05:04:08 45° WNW 05:04:08 45° WNW
STARLINK-1010 4.5 05:00:49 10° NW 05:04:24 39° NNE 05:04:24 39° NNE
STARLINK-1348 4.0 05:01:45 10° WSW 05:04:25 44° WNW 05:04:25 44° WNW
STARLINK-1283 3.8 05:01:15 10° W 05:04:52 56° SSW 05:04:52 56° SSW
STARLINK-1330 4.0 05:02:04 10° WSW 05:04:43 44° WNW 05:04:43 44° WNW
CZ-4B R/B 3.4 04:59:42 10° SSE 05:05:11 74° WSW 05:10:42 10° NNW
STARLINK-1363 4.0 05:02:28 10° WSW 05:05:07 44° WNW 05:05:07 44° WNW
Cosmos 2242 Rocket 4.1 05:00:58 10° S 05:04:28 46° SSE 05:04:28 46° SSE
STARLINK-1337 4.0 05:02:45 10° WSW 05:05:23 43° WNW 05:05:23 43° WNW
STARLINK-1342 4.1 05:03:05 10° WSW 05:05:42 43° WNW 05:05:42 43° WNW
Radarsat Rocket 4.5 04:58:10 10° SSE 05:06:14 89° WSW 05:13:14 10° NNW
STARLINK-1311 4.4 05:03:14 10° W 05:05:12 32° WSW 05:05:12 32° WSW
Lacrosse 5 rocket 3.4 05:02:58 10° N 05:04:38 18° NNE 05:04:38 18° NNE
STARLINK-1364 4.1 05:03:24 10° WSW 05:06:01 42° WNW 05:06:01 42° WNW
STARLINK-1376 4.1 05:03:47 10° WSW 05:06:22 42° WNW 05:06:22 42° WNW
STARLINK-1360 4.1 05:04:06 10° WSW 05:06:40 41° WNW 05:06:40 41° WNW
STARLINK-1369 3.7 05:03:40 10° WSW 05:07:12 58° NW 05:07:12 58° NW
STARLINK-79 4.4 05:03:42 10° NW 05:06:37 37° N 05:06:37 37° N
STARLINK-1361 4.1 05:04:25 10° WSW 05:06:59 41° WNW 05:06:59 41° WNW
STARLINK-1367 4.2 05:04:48 10° WSW 05:07:16 40° WNW 05:07:16 40° WNW
STARLINK-1366 4.2 05:05:10 10° WSW 05:07:42 40° WNW 05:07:42 40° WNW
Cosmos 1943 Rocket 3.1 05:03:27 10° SSW 05:07:26 31° SSE 05:07:26 31° SSE
Cosmos 371 Rocket 3.1 05:03:46 10° SSW 05:08:39 69° ESE 05:08:53 68° E
CORIOLIS 4.1 05:05:50 28° SSE 05:08:50 73° ENE 05:14:18 10° N
STARLINK-78 4.4 05:05:19 10° NW 05:08:11 37° N 05:08:11 37° N
Cosmos 2237 Rocket 2.1 05:03:46 10° NNW 05:09:26 76° ENE 05:11:03 48° SE
Cosmos 2369 Rocket 3.4 05:04:59 10° SSW 05:08:42 26° SSE 05:08:42 26° SSE
STARLINK-1372 3.8 05:06:28 10° WSW 05:09:53 55° NW 05:09:53 55° NW
STARLINK-57 4.4 05:07:01 10° NW 05:09:54 39° N 05:09:54 39° N
STARLINK-61 3.6 05:06:52 10° WNW 05:10:27 71° NW 05:10:27 71° NW
STARLINK-49 4.5 05:08:35 10° NW 05:11:22 37° N 05:11:22 37° N
STARLINK-1378 4.0 05:09:31 10° WSW 05:12:53 52° NW 05:12:53 52° NW
Cosmos 1470 Rocket 3.5 05:08:48 10° N 05:13:12 79° NE 05:13:12 79° NE
STARLINK-1304 3.7 05:09:53 10° WNW 05:13:54 78° WSW 05:13:54 78° WSW
NOAA 12 4.0 05:12:37 40° SSE 05:14:39 77° ENE 05:19:56 10° N
STARLINK-1329 4.1 05:11:48 10° WSW 05:15:02 49° NW 05:15:02 49° NW
STARLINK-1379 4.1 05:12:04 10° WSW 05:15:16 49° NW 05:15:16 49° NW
STARLINK-1286 3.8 05:12:10 10° WNW 05:16:08 74° WSW 05:16:08 74° WSW
STARLINK-1362 4.2 05:14:58 10° WSW 05:18:11 47° WNW 05:18:11 47° WNW
STARLINK-1365 4.3 05:15:12 10° WSW 05:18:25 46° NW 05:18:25 46° NW
AQUARIUS 4.3 05:18:31 50° S 05:19:41 76° WSW 05:24:13 10° NNW
ATLAS CENTAUR R/B 3.0 05:15:46 10° SSW 05:18:35 28° S 05:18:35 28° S
STARLINK-1373 4.4 05:17:47 10° WSW 05:20:51 44° WNW 05:20:51 44° WNW
Cosmos 1862 Rocket 4.4 05:17:52 10° SSW 05:22:20 52° W 05:26:44 10° N
NOSS 3-4 (A) 3.6 05:17:16 10° SW 05:24:38 67° SE 05:25:49 58° E
NOSS 3-4 (C) 3.6 05:17:22 10° SW 05:24:44 67° SE 05:25:52 58° E
SL-16 R/B 3.5 05:19:48 10° N 05:22:27 26° NNE 05:22:27 26° NNE
Okean O Rocket 2.9 05:23:38 17° S 05:26:44 40° WSW 05:30:54 10° NW
H-2A R/B 4.5 05:25:18 20° SSW 05:27:15 32° WSW 05:30:45 10° NW
Cosmos 1802 Rocket 3.9 05:21:02 10° N 05:27:30 81° E 05:34:01 10° SSE
IRS-1C Rocket 4.0 05:28:06 72° NE 05:28:06 72° NE 05:33:03 10° N
Cosmos 2346 Rocket 4.3 05:23:52 10° S 05:30:06 83° E 05:36:12 10° N
Cosmos 2333 Rocket 3.5 05:24:55 10° WNW 05:30:14 36° SW 05:33:32 21° S
Cosmos 1725 Rocket 4.2 05:24:05 10° N 05:29:00 51° NE 05:29:00 51° NE
STARLINK-1299 4.3 05:26:04 10° W 05:29:38 55° WSW 05:29:38 55° WSW
STARLINK-1306 4.3 05:26:35 10° W 05:30:00 54° WSW 05:30:00 54° WSW
Cosmos 2278 Rocket 3.8 05:25:59 10° SW 05:31:03 34° WNW 05:36:06 10° NNW
SMAP 3.8 05:32:36 32° S 05:34:30 53° WSW 05:39:05 10° NW
NOSS 3-3 (A) 4.4 05:27:33 10° NNW 05:35:49 79° NE 05:37:39 56° ESE
NOSS 3-3 (C) 4.4 05:27:40 10° NNW 05:35:55 78° NE 05:37:42 57° ESE
Cosmos 2360 Rocket 4.5 05:44:33 10° WSW 05:48:12 17° SSW 05:50:58 13° S
Tsikada Rocket 3.9 05:41:48 10° S 05:48:21 86° E 05:48:35 83° NE
ATLAS 2AS CENTAUR R/B 2.5 05:44:22 10° SW 05:50:57 85° SE 05:51:07 84° E
CZ-2C R/B 2.9 05:53:39 69° WNW 05:53:39 69° WNW 05:59:05 10° SSW
Cosmos 1818 4.2 05:55:58 10° WNW 06:00:42 53° WSW 06:00:42 53° WSW
SeaSat 1 4.5 06:07:27 20° SSW 06:07:27 20° SSW 06:08:58 10° SSW
Cosmos 2219 Rocket 4.1 06:06:38 10° W 06:11:11 24° SW 06:13:00 20° SSW
CZ-4C R/B 4.1 06:21:18 10° SW 06:24:38 24° SSW 06:24:38 24° SSW
USA 234 4.0 06:34:22 46° SSW 06:34:22 46° SSW 06:39:35 10° WSW
ATLAS 5 CENTAUR R/B 3.6 06:41:16 10° WNW 06:46:25 43° W 06:46:25 43° W
Cosmos 1943 Rocket 4.3 06:47:07 10° SW 06:48:58 21° SW 06:48:58 21° SW
Cosmos 2237 Rocket 4.1 06:49:20 10° W 06:52:55 25° WSW 06:52:55 25° WSW
Cosmos 2369 Rocket 4.3 06:48:47 10° SSW 06:50:30 20° SW 06:50:30 20° SW
